Temperature
15 15 15 16 13 11 12 13 14 15 15 15 15 15 14 14 15 14 13 14 14 14 13 13 13 13 13 14 14 14 14 14 14 14 14 14 14 14 14 14 14 14 14 14 14 14 14 14 14
15 15 15 15 11 12 12 13 14 14 15 15 15 14 13 13 13 13 13 13 13 13 13 13 13 13 13 13 13 13 14 13 14 14 14 14 14 14 14 14 14 14 14 14 14 14 14 14 14
14 15 15 11 11 12 13 14 13 14 15 15 14 13 13 12 13 13 13 13 13 13 13 13 13 13 13 13 13 13 13 13 13 13 13 13 13 14 14 14 14 14 14 14 14 14 14 14 14
14 14 13 11 12 12 13 13 13 14 15 14 13 12 12 12 12 13 13 13 13 13 13 13 13 13 13 13 13 13 13 13 13 13 13 13 13 13 13 13 14 13 13 14 13 13 13 13 14
14 14 11 11 11 12 12 13 14 13 13 14 13 11 11 11 12 12 13 13 13 13 12 12 12 12 12 13 13 13 13 13 13 13 13 13 13 13 13 13 13 13 13 13 13 13 13 13 13
13 11 10 10 11 12 12 14 14 13 13 13 12 11 10 11 12 12 12 12 12 12 12 12 12 12 12 12 12 12 12 12 13 13 13 13 13 13 13 13 13 13 13 13 13 13 13 13 13
12 9 10 11 11 12 12 13 13 12 12 12 13 10 10 11 11 11 11 12 12 12 12 12 12 12 12 12 12 12 12 12 12 12 12 12 12 12 12 13 13 13 13 13 13 13 12 12 13
12 9 10 10 11 12 12 13 12 12 11 12 12 11 10 11 11 11 11 11 11 11 11 11 11 11 11 11 11 11 12 12 12 12 12 12 12 12 12 12 12 12 12 12 12 12 12 12 12
12 9 9 10 11 11 12 11 12 12 11 11 11 11 11 11 10 10 10 10 10 11 11 11 11 11 11 11 11 11 11 11 11 12 11 11 12 12 12 12 12 12 12 12 12 12 12 12 12
11 8 10 10 11 11 11 11 11 11 10 9 10 10 11 10 10 10 10 10 10 11 11 11 11 11 11 11 11 11 11 11 11 11 11 11 11 11 11 11 11 11 11 11 11 12 12 12 12
10 9 9 10 11 11 10 10 10 10 8 9 9 10 10 10 10 10 10 10 11 10 10 10 10 10 10 10 10 10 10 10 10 11 11 11 11 11 11 11 11 11 11 11 11 11 11 11 11
9 9 9 10 10 10 9 9 9 9 9 10 10 10 10 10 10 10 10 10 10 10 10 10 10 10 10 10 10 10 10 10 10 10 10 10 10 10 11 11 11 11 11 11 11 11 11 11 11
8 8 9 9 9 9 9 8 8 7 8 9 9 9 9 9 9 9 9 9 9 9 9 9 9 9 9 10 10 10 10 10 10 10 10 10 10 10 10 10 10 10 10 10 10 10 10 11 11
8 8 8 8 9 9 8 7 7 7 8 8 8 8 8 8 9 9 9 9 9 9 9 9 9 9 9 9 9 9 9 9 9 9 10 10 10 10 10 10 10 10 10 10 10 10 10 10 10
8 7 7 8 8 8 8 6 6 7 7 7 7 8 8 8 8 8 9 9 9 9 9 9 8 8 8 8 9 9 9 9 9 9 9 9 9 9 9 9 9 9 9 9 9 9 10 10 10
7 6 6 7 8 8 7 6 6 7 7 6 6 7 7 7 8 8 8 8 8 8 8 8 8 8 8 8 8 8 8 8 8 8 8 8 9 9 9 9 9 9 9 9 9 9 9 9 9
6 6 6 7 7 7 6 6 5 6 6 5 6 6 6 7 7 7 7 8 8 8 8 8 8 8 8 8 8 8 8 8 8 8 8 8 8 8 8 8 8 8 8 8 8 8 9 9 9
6 5 6 6 6 6 5 5 5 5 5 5 5 5 6 6 6 7 7 7 7 7 7 7 7 7 7 7 7 7 7 7 7 7 7 7 7 7 8 8 8 8 8 8 8 8 8 8 8
6 6 5 6 6 6 5 5 5 5 5 4 4 5 5 5 6 6 6 7 7 7 7 7 7 7 7 7 7 7 7 7 7 7 7 7 7 7 7 7 7 7 7 8 7 7 7 7 8
6 5 5 5 6 6 5 4 5 4 4 4 4 4 5 5 5 5 6 6 6 6 6 6 6 6 6 6 6 6 6 6 6 6 6 6 6 6 6 7 7 7 7 7 7 7 7 7 7
5 5 4 5 5 5 4 4 4 4 4 4 5 5 5 4 5 5 5 5 6 6 6 6 6 6 6 6 6 6 5 5 5 5 6 5 5 6 6 6 6 6 6 6 6 6 6 6 6
4 5 5 4 4 3 4 3 4 4 3 3 3 4 4 4 4 4 4 5 5 5 5 5 5 5 5 5 5 5 5 5 5 5 5 5 5 5 5 5 5 6 6 6 6 6 6 6 6
4 5 4 4 3 2 3 3 3 3 3 3 3 3 4 4 4 4 4 4 4 4 5 5 5 5 5 5 5 5 5 5 5 5 4 4 4 4 5 5 5 5 5 5 5 5 5 5 5
4 4 3 2 2 2 3 2 3 2 3 3 2 3 3 3 3 3 3 3 3 4 4 4 4 4 4 4 4 4 4 4 4 4 4 4 4 4 4 4 4 4 4 5 5 5 5 5 5
3 2 2 2 2 2 2 2 3 3 2 2 2 2 3 3 3 3 3 3 3 3 3 3 3 3 3 3 3 3 3 3 3 3 3 3 3 3 3 4 4 4 4 4 4 4 4 4 4
2 2 2 3 2 2 1 2 2 2 2 2 3 2 2 2 2 2 2 2 2 2 2 3 3 3 3 3 3 3 3 3 3 3 3 3 3 3 3 3 3 3 3 3 3 3 4 4 4
2 2 2 1 0 0 1 1 1 2 1 1 1 1 1 1 2 2 2 2 2 2 2 2 2 2 2 2 2 2 2 2 2 2 2 2 2 2 2 2 3 3 3 3 3 3 3 3 3
2 1 0 1 1 1 1 0 1 2 1 0 -0 -0 1 1 1 1 1 1 1 1 1 1 1 2 2 2 1 1 2 1 2 2 2 2 2 2 2 2 2 2 2 2 2 2 2 2 2
1 1 1 -0 0 0 0 1 1 1 1 -0 -1 -0 -0 0 0 0 0 0 0 0 1 1 1 1 1 1 1 1 1 1 1 1 1 1 1 1 1 1 2 2 2 2 2 2 2 2 2
1 0 -0 1 -0 -1 -1 1 1 -0 -0 -0 -1 -0 -0 -0 -0 -0 -0 -0 -0 -0 0 0 0 0 0 0 0 0 0 0 0 0 1 1 1 1 1 1 1 1 1 1 1 1 1 1 1
Wind_Speed
8 6 2 4 5 3 3 4 2 1 0 0 2 4 6 4 3 4 1 2 5 5 6 8 9 10 10 11 11 10 10 11 11 11 12 12 12 12 13 13 13 13 13 13 14 14 15 15 15
5 2 4 4 4 2 5 4 3 4 4 2 3 3 4 3 2 4 1 2 6 7 6 7 10 11 11 11 11 10 10 10 11 11 11 11 11 12 12 13 13 13 13 13 14 14 14 14 15
4 1 4 4 4 6 5 3 6 2 0 2 2 3 2 2 2 2 1 4 7 6 6 7 10 10 11 11 10 10 10 10 10 11 10 11 11 11 12 12 12 12 13 13 13 14 14 14 14
3 4 4 2 5 6 5 3 3 2 2 3 3 3 2 2 1 2 4 6 7 6 7 7 10 10 10 10 10 10 10 10 10 10 10 10 10 11 12 12 12 12 13 13 13 13 13 14 14
4 4 2 2 6 5 3 3 1 1 1 1 3 3 1 3 3 5 7 7 8 6 7 8 10 10 10 10 10 10 10 9 9 10 10 10 10 11 12 12 12 12 12 12 13 13 13 13 14
3 3 3 5 6 4 3 3 1 1 1 0 3 3 1 1 4 5 6 6 7 7 7 8 9 10 10 10 10 10 9 10 9 9 10 10 10 10 11 11 11 11 12 12 12 12 13 13 14
4 4 5 5 5 4 3 0 2 2 1 1 2 4 2 1 2 4 6 6 6 7 7 7 8 8 9 10 10 10 10 10 10 9 9 9 10 10 10 10 10 11 11 11 11 12 13 13 13
4 3 3 4 5 5 2 1 1 2 1 1 2 5 4 3 3 5 6 6 6 6 6 6 7 8 7 8 9 10 9 9 10 9 9 9 9 9 9 9 10 10 11 11 11 12 13 13 13
3 2 4 5 5 4 1 1 1 1 2 2 2 1 2 6 6 6 5 5 5 4 4 5 6 7 7 7 7 9 8 9 9 9 8 8 8 8 8 9 9 9 10 11 11 11 12 12 13
3 4 6 3 3 3 1 0 1 1 1 1 2 3 4 6 7 7 6 5 4 4 3 4 5 6 7 6 7 7 7 7 8 8 8 7 8 8 8 9 10 9 9 10 10 10 10 10 10
3 4 3 2 2 1 1 1 0 2 2 3 3 2 4 4 5 6 5 4 5 4 4 3 5 6 6 5 6 6 6 6 7 8 8 8 8 7 7 7 8 8 8 8 8 8 8 8 9
1 2 2 2 2 1 1 0 1 1 5 3 4 5 5 5 5 6 5 4 4 3 4 3 4 5 5 6 5 6 6 6 6 6 8 7 6 5 5 5 6 6 6 6 7 7 7 8 9
2 2 2 1 2 1 1 1 0 3 4 1 3 5 5 5 5 5 4 4 4 4 3 3 3 4 4 5 5 5 5 5 6 6 7 7 6 4 4 4 5 5 5 5 5 5 6 6 7
2 1 2 3 3 2 1 4 1 5 1 2 3 4 5 5 4 3 3 3 4 4 4 4 4 4 4 4 4 4 5 5 6 5 6 7 6 5 4 4 4 4 5 5 5 5 5 5 5
1 2 4 3 2 1 1 4 5 5 1 1 2 4 4 4 4 4 5 5 5 4 4 4 4 4 4 4 4 4 4 5 5 5 6 6 6 5 5 4 3 3 5 6 6 5 5 5 5
2 1 3 4 2 2 3 7 5 2 3 2 3 2 3 3 3 4 4 4 4 3 4 4 4 4 3 3 4 4 4 5 4 5 5 6 6 6 5 4 3 4 5 5 4 3 3 3 3
2 2 4 4 2 2 4 7 5 3 4 4 4 3 3 1 1 2 3 3 3 4 5 5 4 4 3 3 4 4 4 4 4 5 5 5 6 5 5 4 4 5 5 4 4 3 3 3 3
3 3 4 5 2 2 5 8 6 4 4 5 4 4 3 2 2 1 1 2 3 4 4 4 4 4 3 3 3 3 3 3 3 4 4 5 5 5 5 4 4 5 4 3 4 3 3 3 4
4 4 6 6 3 3 6 8 9 6 4 5 5 5 4 4 1 1 1 2 2 2 3 3 4 4 3 3 3 3 3 2 2 2 4 5 5 5 4 3 3 3 3 4 4 4 4 3 3
2 4 6 6 3 3 6 9 9 7 7 7 8 7 6 3 1 1 1 2 2 2 3 3 4 3 4 4 3 3 3 2 2 2 3 4 5 5 5 4 3 3 4 4 4 4 3 2 2
3 5 5 5 5 3 3 7 7 6 4 5 6 6 5 6 5 3 2 2 1 1 3 3 4 4 3 3 3 2 2 2 1 2 2 2 4 5 5 4 4 3 4 5 4 5 5 3 1
6 5 4 4 3 4 1 6 8 5 4 5 6 5 5 4 4 3 3 2 2 2 3 3 3 3 3 3 4 5 4 3 3 3 2 2 3 4 5 4 4 4 3 4 5 4 4 4 3
5 4 3 3 3 4 3 4 7 3 5 6 6 6 6 5 5 4 3 3 2 2 2 3 3 2 2 3 5 5 4 3 2 3 3 2 1 3 4 5 4 3 3 3 4 4 4 4 4
2 2 2 2 1 5 6 5 6 5 6 5 4 5 5 5 4 3 2 1 1 1 1 2 3 3 3 3 4 5 5 4 4 3 4 3 2 1 2 4 4 4 3 3 4 5 5 4 3
3 3 3 4 2 6 3 3 8 6 5 5 5 4 4 4 4 3 2 2 1 1 1 1 3 3 3 3 4 4 5 5 6 5 5 4 3 2 4 3 4 4 4 4 4 4 4 4 4
2 4 4 4 5 5 2 5 6 5 3 2 2 2 2 2 3 3 3 3 2 2 2 2 3 3 3 4 4 4 4 4 4 4 4 5 4 3 3 3 4 5 4 4 4 3 4 3 4
2 2 3 3 1 3 5 6 7 2 3 3 2 1 1 2 2 2 1 1 1 2 2 2 3 3 3 4 4 3 4 4 4 4 4 4 3 3 4 3 3 4 4 5 4 3 4 4 4
2 3 2 2 2 4 6 5 4 5 4 4 4 3 3 2 1 1 1 1 1 1 1 1 2 3 3 4 4 4 4 4 4 4 5 4 4 4 4 4 4 4 4 4 4 3 4 5 4
1 2 2 2 3 3 4 6 4 4 4 4 4 3 3 2 2 2 1 1 1 1 1 1 1 1 2 3 3 3 4 4 4 4 5 5 4 4 5 5 4 4 4 4 4 4 4 5 5
4 5 5 3 4 3 3 7 3 2 3 3 3 3 3 3 2 2 1 2 2 2 2 2 1 2 3 3 3 3 3 3 4 4 5 5 5 5 5 5 5 5 5 5 5 6 5 6 6
Wind_Direction
325 339 57 59 64 64 235 249 225 236 150 90 68 98 114 115 127 149 145 134 117 134 144 145 135 126 122 116 116 111 106 103 101 101 103 104 101 99 98 98 96 94 92 91 90 89 87 86 87
334 2 56 66 110 179 249 243 205 222 198 130 53 63 81 87 76 104 95 122 121 124 128 136 132 127 123 117 113 114 111 108 104 102 103 105 106 103 102 100 99 97 95 93 92 90 89 89 89
329 53 85 92 154 192 215 219 202 217 189 116 75 43 94 117 120 138 153 132 117 112 117 127 126 126 123 119 115 113 112 110 107 105 105 104 108 108 105 103 100 98 97 95 94 92 91 92 92
59 53 62 112 216 223 213 215 199 164 38 58 106 64 51 16 152 145 129 123 117 108 113 124 121 119 120 123 120 115 110 109 108 107 107 104 106 110 106 104 103 101 99 97 96 93 93 94 94
62 88 104 221 233 237 228 246 212 162 172 60 104 109 56 347 56 99 115 119 122 108 109 121 119 117 115 116 119 114 111 107 106 108 106 104 103 108 109 107 106 105 103 101 99 96 95 96 96
68 87 146 217 232 237 241 240 199 160 213 26 105 124 149 2 94 106 112 110 114 112 110 117 118 115 113 110 106 110 109 108 103 107 105 102 103 103 107 109 110 110 107 105 102 100 97 96 98
118 128 189 205 220 235 246 255 164 164 151 250 147 133 159 206 122 110 107 103 103 106 103 103 108 112 110 106 101 97 98 106 102 98 97 97 100 101 105 107 109 111 110 108 105 103 100 99 98
133 126 200 216 207 225 224 99 113 134 195 336 94 147 184 200 140 106 99 95 94 95 96 98 104 104 103 104 102 98 95 99 103 97 91 86 94 97 99 102 106 107 108 107 105 104 103 100 97
101 111 217 222 202 208 187 92 349 49 96 36 41 136 172 137 121 110 101 85 92 104 98 101 103 104 106 107 107 103 99 96 95 93 92 88 86 92 94 97 102 103 104 102 101 103 103 98 96
105 189 223 232 212 192 190 174 204 86 30 354 21 33 87 122 129 130 134 135 136 142 134 107 110 108 108 110 107 103 97 96 91 92 92 93 86 86 93 95 96 97 97 98 97 98 96 93 91
152 201 218 271 284 193 241 307 303 156 238 225 209 175 129 125 136 144 153 160 167 163 142 124 118 117 115 111 111 105 100 96 92 91 91 94 87 83 85 88 88 89 90 88 90 87 86 89 92
167 270 246 275 320 327 284 335 9 237 250 239 197 165 154 156 170 172 175 175 160 149 153 139 120 120 121 121 115 108 103 101 100 97 96 94 87 82 82 81 85 82 83 85 88 90 88 88 91
224 264 283 307 9 336 24 313 230 278 278 275 126 144 163 177 187 185 185 178 165 157 160 153 126 124 126 119 113 110 106 113 115 111 108 105 97 97 96 90 87 85 85 88 89 94 94 89 87
197 249 290 293 287 281 252 287 256 262 264 131 137 165 176 187 193 173 173 192 187 176 173 161 137 129 129 123 118 119 121 124 120 115 120 118 110 108 112 103 96 93 94 94 99 100 100 93 93
124 333 319 291 242 231 134 296 255 248 176 169 187 194 191 197 192 186 182 190 192 183 173 163 151 135 135 133 131 129 129 129 126 128 131 125 121 116 115 113 106 103 106 100 95 91 93 91 87
48 21 290 290 226 205 153 258 270 237 168 205 221 210 198 214 204 196 180 178 177 169 169 165 151 147 144 136 135 134 134 133 134 135 133 129 127 124 118 115 116 116 111 104 101 99 100 91 85
15 255 253 281 229 186 191 254 265 232 188 213 228 220 214 209 209 200 177 172 176 174 169 169 165 165 162 145 131 132 134 135 137 134 131 133 133 131 128 120 121 120 111 106 109 108 114 113 103
243 246 258 257 260 216 230 255 267 239 214 220 220 221 221 214 220 179 173 170 170 166 158 163 170 168 161 144 124 114 116 118 127 134 136 137 137 135 132 127 120 123 116 113 115 119 103 121 122
227 237 263 269 272 250 245 263 270 250 226 227 226 221 227 230 219 160 145 143 138 143 154 166 168 173 161 161 163 159 170 163 136 135 144 143 144 143 136 133 129 129 135 139 132 121 118 109 114
235 255 273 286 284 257 258 271 271 246 228 220 218 219 217 210 191 159 125 117 137 165 175 181 184 178 175 176 179 172 168 166 150 136 138 145 148 149 152 148 156 147 143 138 135 123 131 139 129
266 233 243 264 304 312 292 288 277 270 244 233 226 223 213 198 201 194 187 180 163 184 198 198 199 190 184 172 153 140 130 123 146 166 160 161 161 159 163 168 167 161 159 163 161 153 146 161 186
262 248 241 257 294 282 238 279 278 268 262 244 233 224 222 212 201 196 195 194 206 223 219 200 193 186 185 170 168 170 175 183 196 189 183 182 164 155 159 165 170 171 167 170 172 164 159 154 166
245 267 249 247 241 280 260 235 280 283 260 251 234 227 224 218 202 199 202 205 214 215 219 207 191 186 184 178 176 180 186 188 181 174 173 177 162 162 167 165 166 170 175 178 174 172 170 168 171
258 2 357 34 98 264 242 215 276 248 241 256 247 232 222 218 208 201 194 174 218 226 218 214 188 195 195 184 180 180 184 183 179 186 189 192 188 178 182 175 175 178 182 186 188 182 182 185 181
47 69 8 347 324 255 257 220 256 256 249 230 234 232 219 204 189 186 190 197 213 241 235 211 199 205 202 193 190 191 193 189 191 198 198 198 198 215 205 196 190 191 193 193 187 183 189 191 186
233 152 177 225 243 279 298 236 258 267 284 259 226 219 211 203 196 196 199 197 207 234 240 222 212 223 208 200 203 199 194 193 197 199 199 202 205 209 217 207 202 200 196 195 188 185 191 187 189
165 196 191 170 253 272 269 282 299 286 334 343 329 331 262 225 206 195 198 195 206 239 247 233 225 227 219 207 208 209 199 195 199 198 193 200 201 208 214 219 208 206 197 196 192 197 198 188 193
176 162 113 155 227 268 284 274 262 266 276 301 305 289 274 254 223 201 215 256 278 263 275 275 230 227 228 219 211 213 209 205 197 194 201 203 200 205 204 211 208 201 196 195 193 205 203 191 197
160 163 172 179 189 203 267 269 236 233 245 254 268 275 261 254 244 236 264 306 309 310 321 307 268 250 242 234 225 220 216 209 197 199 202 203 206 205 203 208 208 202 200 192 194 203 205 199 201
204 196 173 195 242 216 238 267 273 251 275 260 273 294 284 266 269 274 297 328 318 308 311 299 278 269 258 245 233 231 225 211 209 211 209 204 209 211 210 207 208 210 208 200 201 203 209 204 205
Height
1511 1512 1513 1515 1519 1528 1528 1521 1515 1513 1513 1512 1512 1512 1513 1516 1519 1525 1522 1521 1523 1524 1526 1528 1530 1531 1532 1533 1534 1535 1536 1537 1538 1539 1539 1540 1541 1541 1542 1542 1542 1543 1543 1544 1544 1544 1544 1545 1545
1511 1512 1514 1515 1523 1532 1527 1517 1514 1512 1511 1511 1512 1513 1513 1516 1517 1519 1519 1520 1522 1524 1526 1528 1530 1531 1532 1533 1534 1535 1536 1537 1538 1539 1539 1540 1541 1541 1542 1542 1543 1544 1544 1544 1545 1545 1545 1546 1546
1511 1512 1514 1516 1524 1526 1520 1513 1512 1510 1510 1511 1512 1514 1515 1517 1517 1518 1519 1520 1522 1524 1526 1527 1529 1531 1532 1533 1534 1535 1536 1537 1538 1539 1540 1540 1541 1542 1542 1543 1543 1544 1544 1545 1545 1546 1546 1546 1547
1510 1512 1514 1520 1521 1517 1513 1510 1509 1510 1510 1510 1512 1515 1516 1518 1517 1518 1519 1521 1522 1524 1526 1527 1529 1530 1531 1533 1534 1535 1536 1537 1538 1539 1540 1540 1541 1542 1542 1543 1544 1544 1545 1545 1546 1546 1547 1547 1548
1510 1511 1517 1521 1518 1513 1510 1509 1509 1509 1510 1511 1512 1514 1516 1518 1517 1518 1519 1520 1522 1523 1525 1527 1528 1530 1531 1532 1533 1534 1535 1536 1537 1538 1539 1540 1541 1542 1542 1543 1544 1544 1545 1546 1546 1547 1547 1548 1548
1509 1511 1520 1521 1516 1511 1510 1509 1509 1509 1510 1511 1512 1514 1516 1517 1517 1518 1519 1520 1522 1523 1524 1526 1528 1529 1530 1531 1532 1533 1535 1535 1536 1538 1539 1540 1541 1542 1542 1543 1544 1545 1545 1546 1546 1547 1548 1549 1549
1509 1513 1517 1516 1514 1511 1509 1508 1509 1509 1510 1511 1512 1514 1515 1516 1517 1518 1518 1520 1521 1523 1524 1525 1527 1528 1529 1531 1532 1533 1534 1535 1536 1537 1539 1540 1540 1541 1542 1543 1544 1544 1545 1546 1547 1547 1548 1549 1550
1507 1511 1513 1514 1512 1510 1508 1508 1509 1509 1510 1511 1511 1512 1513 1515 1516 1517 1518 1519 1520 1522 1523 1524 1526 1527 1528 1530 1531 1532 1533 1534 1535 1536 1537 1539 1540 1541 1542 1543 1544 1544 1545 1545 1546 1547 1548 1549 1550
1507 1514 1514 1511 1509 1508 1507 1508 1509 1509 1509 1509 1510 1511 1512 1513 1514 1516 1517 1518 1519 1521 1522 1523 1525 1526 1527 1528 1530 1531 1532 1533 1534 1535 1537 1538 1539 1540 1541 1542 1543 1544 1545 1545 1546 1547 1548 1549 1550
1506 1513 1509 1507 1506 1506 1506 1507 1508 1509 1509 1509 1509 1510 1511 1512 1513 1514 1515 1516 1517 1519 1520 1522 1523 1525 1526 1527 1528 1530 1531 1532 1533 1534 1536 1537 1538 1539 1540 1541 1542 1543 1544 1545 1545 1546 1547 1548 1550
1506 1508 1506 1506 1505 1505 1505 1507 1507 1508 1509 1508 1508 1508 1509 1510 1511 1512 1513 1514 1515 1517 1519 1520 1522 1523 1524 1526 1527 1528 1529 1531 1532 1533 1534 1536 1536 1538 1539 1540 1541 1542 1543 1544 1545 1546 1547 1548 1549
1506 1506 1505 1505 1505 1505 1506 1506 1507 1507 1507 1507 1507 1508 1508 1508 1509 1511 1512 1513 1514 1515 1517 1519 1520 1522 1523 1524 1525 1526 1528 1529 1530 1531 1533 1534 1535 1537 1538 1539 1540 1541 1542 1543 1544 1545 1547 1548 1549
1506 1506 1506 1505 1505 1505 1505 1506 1507 1506 1506 1506 1506 1506 1506 1507 1508 1509 1511 1511 1512 1513 1515 1517 1518 1520 1521 1522 1523 1525 1526 1527 1528 1530 1531 1533 1534 1535 1536 1537 1538 1539 1541 1542 1543 1544 1546 1547 1548
1505 1505 1505 1505 1504 1505 1506 1506 1506 1504 1505 1505 1504 1504 1505 1505 1506 1507 1508 1509 1510 1511 1513 1514 1516 1517 1519 1520 1521 1523 1524 1525 1527 1528 1529 1531 1532 1533 1534 1535 1536 1538 1539 1540 1542 1543 1545 1546 1547
1505 1506 1505 1504 1504 1505 1505 1506 1504 1503 1504 1503 1503 1503 1503 1503 1504 1504 1505 1507 1508 1509 1510 1512 1513 1515 1517 1518 1519 1520 1522 1523 1525 1526 1527 1529 1530 1531 1532 1533 1535 1536 1537 1539 1540 1542 1543 1544 1546
1506 1508 1509 1505 1503 1504 1508 1506 1503 1503 1502 1501 1501 1501 1501 1501 1501 1502 1503 1504 1506 1507 1508 1509 1511 1513 1514 1516 1517 1518 1520 1521 1522 1524 1525 1526 1528 1529 1530 1531 1533 1534 1535 1537 1538 1540 1541 1543 1544
1510 1512 1510 1506 1503 1503 1506 1504 1501 1501 1500 1499 1499 1498 1498 1498 1499 1499 1501 1502 1503 1504 1505 1507 1508 1510 1512 1513 1514 1516 1517 1519 1520 1522 1523 1524 1525 1527 1528 1529 1531 1532 1533 1534 1536 1538 1539 1541 1542
1511 1511 1508 1507 1503 1503 1504 1502 1499 1499 1498 1497 1496 1496 1496 1495 1496 1497 1498 1499 1500 1501 1503 1504 1506 1507 1509 1510 1512 1513 1515 1516 1517 1519 1520 1522 1523 1524 1526 1527 1528 1530 1531 1532 1534 1535 1537 1539 1540
1507 1508 1508 1505 1503 1503 1502 1500 1497 1496 1496 1494 1494 1493 1493 1492 1493 1494 1495 1496 1497 1498 1500 1501 1503 1504 1505 1507 1508 1509 1511 1513 1514 1516 1517 1518 1520 1522 1523 1524 1526 1527 1528 1529 1531 1533 1535 1536 1538
1506 1509 1508 1505 1502 1502 1502 1498 1494 1492 1491 1490 1490 1490 1489 1490 1491 1491 1492 1493 1494 1495 1497 1499 1500 1501 1502 1503 1505 1507 1508 1509 1511 1513 1514 1515 1517 1518 1520 1522 1523 1524 1526 1527 1528 1530 1531 1533 1535
1506 1507 1507 1506 1503 1501 1502 1498 1492 1488 1488 1487 1487 1487 1487 1487 1488 1488 1489 1490 1491 1492 1494 1495 1496 1497 1499 1500 1502 1504 1505 1506 1508 1509 1510 1512 1514 1515 1517 1519 1520 1521 1523 1524 1525 1527 1529 1530 1532
1506 1503 1504 1504 1507 1508 1505 1505 1492 1488 1487 1485 1485 1485 1485 1485 1485 1486 1486 1487 1488 1489 1491 1492 1493 1494 1495 1497 1498 1500 1500 1502 1503 1505 1507 1509 1510 1512 1513 1515 1517 1518 1520 1521 1523 1524 1526 1527 1529
1503 1501 1503 1504 1507 1509 1506 1507 1496 1489 1486 1484 1483 1482 1482 1482 1483 1483 1483 1484 1485 1486 1487 1488 1490 1491 1492 1493 1494 1496 1497 1499 1500 1502 1504 1505 1507 1508 1510 1512 1513 1515 1516 1518 1519 1521 1523 1524 1526
1501 1503 1504 1507 1510 1510 1503 1506 1496 1490 1484 1481 1481 1480 1480 1480 1481 1481 1481 1482 1483 1484 1484 1485 1486 1488 1489 1490 1491 1492 1494 1495 1497 1498 1500 1501 1503 1505 1507 1508 1509 1511 1513 1514 1516 1518 1519 1521 1522
1504 1509 1513 1513 1516 1507 1502 1501 1492 1482 1480 1478 1478 1478 1478 1478 1478 1479 1479 1479 1480 1480 1481 1482 1483 1484 1486 1487 1488 1489 1490 1491 1493 1494 1496 1497 1498 1500 1502 1504 1505 1507 1509 1511 1513 1514 1516 1517 1518
1506 1507 1513 1513 1514 1509 1503 1500 1488 1480 1478 1476 1476 1476 1476 1476 1476 1476 1477 1477 1477 1478 1478 1479 1480 1481 1482 1483 1484 1485 1487 1488 1489 1490 1492 1493 1495 1496 1498 1500 1502 1504 1505 1507 1509 1510 1512 1513 1515
1506 1509 1508 1514 1515 1515 1504 1498 1487 1479 1478 1477 1476 1475 1474 1474 1474 1474 1474 1474 1475 1475 1475 1476 1477 1477 1478 1479 1481 1481 1483 1484 1485 1486 1488 1489 1491 1492 1495 1496 1498 1499 1501 1503 1504 1506 1507 1509 1511
1504 1506 1512 1512 1512 1510 1505 1501 1490 1480 1479 1478 1477 1475 1474 1474 1473 1473 1473 1472 1472 1473 1473 1473 1473 1474 1474 1475 1476 1477 1478 1480 1481 1482 1483 1485 1486 1488 1490 1492 1493 1495 1496 1498 1500 1501 1503 1505 1506
1506 1507 1508 1512 1512 1513 1509 1496 1481 1479 1477 1478 1476 1474 1473 1472 1472 1471 1471 1471 1470 1470 1470 1470 1470 1470 1471 1471 1472 1473 1474 1475 1476 1477 1479 1481 1482 1484 1485 1487 1489 1491 1492 1494 1495 1497 1498 1500 1501
1503 1504 1508 1510 1511 1514 1512 1496 1478 1477 1476 1475 1474 1473 1472 1472 1471 1470 1469 1468 1468 1467 1467 1467 1467 1467 1468 1468 1468 1469 1470 1470 1472 1473 1474 1476 1477 1479 1481 1483 1484 1486 1487 1488 1490 1491 1493 1495 1496